Tracking 28790 objects as of 19-Apr-2024
HD Live streaming from Space Station
objects crossing your sky now

OPS 4682 DEB

Track OPS 4682 DEB now!
10-day predictions


NORAD ID: 38433
Int'l Code: 1965-027EN
Perigee: 1,208.1 km
Apogee: 1,245.3 km
Inclination: 90.3 °
Period: 109.8 minutes
Semi major axis: 7597 km
RCS: 0.0136 m2 (small)
Launch date: April 3, 1965
Source: United States (US)
Launch site: AIR FORCE WESTERN TEST RANGE (AFWTR)

Note: This is SATELLITE DEBRIS
Your satellite tracking list
Your tracking list is empty




NASA's NSSDC Master Catalog

Two Line Element Set (TLE):
1 38433U 65027EN  24109.08842591  .00000972  00000-0  27337-2 0  9996
2 38433  90.2548 354.4196 0024480 148.8316 211.4270 13.10940670528274
Source of the keplerian elements: AFSPC